QTR664 OTHH-VCBI

Flight info

Callsign QTR664
Flight time N/A
Altitude 35000
Route BUNDU B415 SIXIV N318 LABRI/N0496F370 N318 GEVED/N0491F390 N318 TOLDA P570 EMURU M300 VASTU P895 BIKOK BIKOK1A
Aircraft A35K/H-SDE2E3GHIJ3J4J5LM1ORWXY/LB1D1

Departure

Time N/A
Airport Hamad International Airport (OTHH)

Arrival

Time 2026-05-05 06:23
Airport Bandaranaike International Colombo Airport (VCBI)
Time Latitude Longitude Altitude Speed Heading
2026-05-05 05:57 8.74068 78.05867 37370 ft 493 kts 130°
2026-05-05 05:57 8.71829 78.08513 37612 ft 494 kts 130°
2026-05-05 05:57 8.69608 78.11144 37876 ft 494 kts 130°
2026-05-05 05:58 8.67386 78.13778 38128 ft 493 kts 130°
2026-05-05 05:58 8.65159 78.16419 38384 ft 492 kts 130°
2026-05-05 05:58 8.62936 78.19056 38644 ft 490 kts 130°
2026-05-05 05:58 8.60740 78.21660 38856 ft 490 kts 130°
2026-05-05 05:59 8.56332 78.26887 38886 ft 488 kts 130°
2026-05-05 05:59 8.51933 78.32104 38883 ft 487 kts 130°
2026-05-05 06:00 8.47533 78.37318 38883 ft 487 kts 130°
2026-05-05 06:00 8.43146 78.42515 38882 ft 488 kts 130°
2026-05-05 06:01 8.40954 78.45112 38663 ft 483 kts 130°
2026-05-05 06:01 8.38771 78.47698 37831 ft 486 kts 130°
2026-05-05 06:01 8.36563 78.50312 36902 ft 492 kts 130°
2026-05-05 06:01 8.34355 78.52926 36029 ft 484 kts 131°
2026-05-05 06:02 8.32175 78.55507 34742 ft 482 kts 131°
2026-05-05 06:02 8.29995 78.58086 33254 ft 483 kts 131°
2026-05-05 06:02 8.27879 78.60749 31619 ft 486 kts 127°
2026-05-05 06:02 8.25890 78.63543 30145 ft 496 kts 126°
2026-05-05 06:03 8.24568 78.65430 29258 ft 497 kts 126°
2026-05-05 06:03 8.21871 78.69275 27888 ft 503 kts 126°
2026-05-05 06:03 8.20529 78.71186 27421 ft 501 kts 126°
2026-05-05 06:03 8.18525 78.74041 26782 ft 496 kts 126°
2026-05-05 06:04 8.15889 78.77790 25926 ft 491 kts 126°
2026-05-05 06:04 8.14556 78.79685 25527 ft 486 kts 126°
2026-05-05 06:04 8.12621 78.82436 24684 ft 474 kts 126°
2026-05-05 06:04 8.10750 78.85096 23741 ft 468 kts 126°
2026-05-05 06:05 8.08251 78.88648 22308 ft 459 kts 126°
2026-05-05 06:05 8.07034 78.90376 21636 ft 454 kts 126°
2026-05-05 06:05 8.05227 78.92943 20626 ft 446 kts 126°
2026-05-05 06:05 8.03436 78.95486 19647 ft 439 kts 126°
2026-05-05 06:06 8.01684 78.97974 18679 ft 432 kts 126°
2026-05-05 06:06 7.99954 79.00429 17664 ft 426 kts 126°
2026-05-05 06:06 7.98251 79.02847 16610 ft 419 kts 126°
2026-05-05 06:06 7.96574 79.05229 15724 ft 411 kts 126°
2026-05-05 06:07 7.94924 79.07568 15178 ft 409 kts 126°
2026-05-05 06:07 7.93272 79.09910 14924 ft 408 kts 126°
2026-05-05 06:07 7.91625 79.12246 14869 ft 407 kts 127°
2026-05-05 06:07 7.89988 79.14567 14879 ft 406 kts 126°
2026-05-05 06:08 7.88369 79.16863 14873 ft 406 kts 127°
2026-05-05 06:08 7.86712 79.19220 14871 ft 407 kts 127°
2026-05-05 06:08 7.85073 79.21544 14874 ft 405 kts 127°
2026-05-05 06:08 7.83460 79.23827 14807 ft 404 kts 127°
2026-05-05 06:09 7.81838 79.26123 14380 ft 398 kts 127°
2026-05-05 06:09 7.80237 79.28391 13842 ft 394 kts 127°
2026-05-05 06:09 7.78649 79.30637 13207 ft 393 kts 127°
2026-05-05 06:09 7.77068 79.32876 12579 ft 390 kts 126°
2026-05-05 06:10 7.75498 79.35098 11967 ft 387 kts 126°
2026-05-05 06:10 7.73942 79.37299 11358 ft 384 kts 126°
2026-05-05 06:10 7.72401 79.39479 10905 ft 377 kts 126°
2026-05-05 06:10 7.70935 79.41556 10782 ft 360 kts 126°
2026-05-05 06:11 7.69517 79.43565 10696 ft 343 kts 126°
2026-05-05 06:11 7.68165 79.45479 10569 ft 328 kts 126°
2026-05-05 06:11 7.66868 79.47315 10434 ft 315 kts 126°
2026-05-05 06:11 7.65612 79.49093 10289 ft 303 kts 126°
2026-05-05 06:12 7.64416 79.50785 10151 ft 292 kts 126°
2026-05-05 06:12 7.63253 79.52431 9929 ft 286 kts 126°
2026-05-05 06:12 7.62093 79.54070 9569 ft 289 kts 126°
2026-05-05 06:12 7.60942 79.55699 9211 ft 290 kts 126°
2026-05-05 06:13 7.59769 79.57359 8903 ft 290 kts 126°
2026-05-05 06:13 7.58595 79.59018 8579 ft 289 kts 126°
2026-05-05 06:13 7.57433 79.60662 8253 ft 288 kts 126°
2026-05-05 06:13 7.56276 79.62296 7935 ft 288 kts 126°
2026-05-05 06:14 7.55114 79.63940 7653 ft 285 kts 126°
2026-05-05 06:14 7.53984 79.65538 7478 ft 275 kts 126°
2026-05-05 06:14 7.52896 79.67075 7223 ft 263 kts 126°
2026-05-05 06:14 7.51851 79.68552 6800 ft 257 kts 126°
2026-05-05 06:15 7.50822 79.70006 6436 ft 253 kts 126°
2026-05-05 06:15 7.49790 79.71464 6117 ft 254 kts 126°
2026-05-05 06:15 7.48768 79.72908 5818 ft 253 kts 126°
2026-05-05 06:15 7.47748 79.74349 5519 ft 253 kts 126°
2026-05-05 06:16 7.46729 79.75791 5243 ft 253 kts 127°
2026-05-05 06:16 7.45707 79.77232 5037 ft 250 kts 127°
2026-05-05 06:16 7.44707 79.78646 4866 ft 251 kts 127°
2026-05-05 06:16 7.43689 79.80083 4548 ft 252 kts 127°
2026-05-05 06:17 7.42674 79.81514 4246 ft 250 kts 127°
2026-05-05 06:17 7.41666 79.82938 3963 ft 249 kts 127°
2026-05-05 06:17 7.40672 79.84346 3609 ft 244 kts 127°
2026-05-05 06:17 7.39686 79.85739 3111 ft 243 kts 127°
2026-05-05 06:18 7.38699 79.87129 2677 ft 245 kts 127°
2026-05-05 06:18 7.37719 79.88508 2497 ft 237 kts 127°
2026-05-05 06:18 7.36796 79.89813 2494 ft 221 kts 127°
2026-05-05 06:18 7.35923 79.91045 2494 ft 214 kts 127°
2026-05-05 06:19 7.35055 79.92260 2495 ft 214 kts 129°
2026-05-05 06:19 7.34138 79.93448 2495 ft 214 kts 130°
2026-05-05 06:19 7.33213 79.94629 2487 ft 214 kts 130°
2026-05-05 06:19 7.32260 79.95771 2487 ft 214 kts 137°
2026-05-05 06:20 7.31027 79.96575 2492 ft 210 kts 163°
2026-05-05 06:20 7.29604 79.96709 2476 ft 204 kts 196°
2026-05-05 06:20 7.28336 79.96123 2388 ft 199 kts 210°
2026-05-05 06:20 7.27215 79.95312 2044 ft 198 kts 226°
2026-05-05 06:21 7.26210 79.94432 1730 ft 189 kts 219°
2026-05-05 06:21 7.25182 79.93711 1467 ft 168 kts 216°
2026-05-05 06:21 7.24276 79.93084 1247 ft 148 kts 218°
2026-05-05 06:21 7.23482 79.92487 1064 ft 139 kts 220°
2026-05-05 06:22 7.22707 79.91897 890 ft 139 kts 220°
2026-05-05 06:22 7.21906 79.91269 742 ft 151 kts 220°
2026-05-05 06:22 7.21067 79.90637 560 ft 148 kts 219°
2026-05-05 06:22 7.20265 79.90024 333 ft 145 kts 219°
2026-05-05 06:23 7.19472 79.89415 107 ft 142 kts 218°
2026-05-05 06:23 7.18707 79.88835 47 ft 124 kts 216°
2026-05-05 06:23 7.18231 79.88465 44 ft 54 kts 218°
2026-05-05 06:23 7.18046 79.88322 46 ft 19 kts 217°
2026-05-05 06:24 7.17932 79.88236 46 ft 20 kts 210°
2026-05-05 06:24 7.17850 79.88255 46 ft 12 kts 133°
2026-05-05 06:24 7.17816 79.88302 45 ft 7 kts 125°
2026-05-05 06:24 7.17796 79.88319 45 ft 2 kts 146°
2026-05-05 06:25 7.17760 79.88323 45 ft 8 kts 191°
2026-05-05 06:25 7.17709 79.88290 45 ft 10 kts 215°
2026-05-05 06:25 7.17640 79.88266 45 ft 11 kts 165°
2026-05-05 06:25 7.17587 79.88318 44 ft 9 kts 127°
2026-05-05 06:26 7.17565 79.88364 44 ft 6 kts 88°
2026-05-05 06:26 7.17589 79.88394 44 ft 5 kts 38°
2026-05-05 06:26 7.17609 79.88409 44 ft 0 kts 38°